Wind_Speed
6 4 4 7 8 4 2 1 3 3 5 8 10 11 13 13 16 16 16 17 17 19 19 18 17 16 15 13 9 8 7 8
3 4 6 5 3 2 2 2 2 4 7 9 11 11 13 14 15 16 17 16 17 19 19 18 19 18 16 14 12 10 7 5
5 5 3 2 1 2 2 3 5 6 7 7 8 11 15 19 20 21 21 21 20 21 20 17 16 17 18 17 14 11 10 9
3 1 1 1 2 2 4 4 4 4 2 6 10 14 17 20 23 23 22 22 22 23 22 21 21 21 20 17 18 18 16 13
6 7 4 3 2 1 3 1 1 1 5 9 13 17 20 22 26 27 27 25 24 25 23 21 22 25 24 22 22 24 24 21
5 5 5 4 3 2 2 4 5 8 12 15 18 20 21 23 23 30 30 28 27 25 25 25 26 27 27 26 27 29 30 28
3 6 10 7 3 6 5 7 7 12 16 20 22 24 24 23 29 30 28 28 28 28 30 32 33 32 33 32 31 33 35 34
3 5 6 11 11 9 10 9 11 16 18 21 23 24 24 28 31 33 31 30 32 34 38 39 38 38 36 36 36 36 37 38
6 4 3 12 16 16 15 13 15 15 18 18 21 23 25 31 32 32 33 34 39 41 43 39 38 40 39 36 35 36 38 40
14 10 6 12 14 15 14 15 18 17 16 18 22 26 32 33 34 33 34 36 44 42 43 40 40 42 40 38 37 38 38 39
22 19 23 14 13 15 11 20 20 18 20 24 27 32 31 30 34 35 36 43 46 47 46 49 48 47 45 43 41 41 41 42
25 22 21 18 21 34 12 18 18 21 24 27 29 34 37 34 38 40 38 47 49 51 52 52 51 52 51 49 46 43 44 45
20 21 20 20 13 7 13 16 21 24 29 28 29 34 35 38 39 45 47 49 50 54 55 54 51 51 52 53 50 47 45 46
19 22 18 10 12 10 15 20 24 24 26 33 38 37 38 42 43 46 49 54 53 54 51 51 50 52 55 56 57 55 51 49
14 9 10 12 12 13 15 17 24 28 31 30 35 39 41 43 48 52 54 55 55 57 53 50 52 50 48 51 54 55 56 52
9 9 10 10 8 11 14 20 26 30 35 38 43 45 46 48 52 51 46 47 54 52 50 49 49 50 48 49 50 54 57 61
16 17 14 13 19 24 29 35 40 43 47 49 49 47 48 51 53 48 51 55 49 50 46 49 50 49 49 49 49 51 57 59
17 15 18 28 33 35 39 42 45 49 52 52 51 47 53 52 52 58 57 49 47 49 49 48 45 42 44 49 53 52 49 46
21 24 27 33 36 40 44 48 51 51 53 51 50 49 50 51 50 50 46 49 48 49 46 43 41 43 46 46 44 47 47 44
24 26 32 36 37 41 47 49 51 51 48 46 46 46 46 45 42 45 53 44 45 39 40 41 42 48 43 37 39 38 38 38
Wind_Direction
162 195 259 274 267 237 219 22 40 24 12 24 32 24 13 3 355 354 353 355 358 358 359 359 360 359 356 356 353 329 316 298
203 254 264 227 192 167 91 61 47 45 45 37 25 10 356 353 353 350 349 352 353 351 351 354 353 352 352 353 358 357 354 320
250 257 226 192 149 128 130 113 93 73 56 27 360 360 358 353 347 344 343 342 345 347 339 338 338 338 338 338 340 343 340 333
259 216 164 135 138 139 120 105 86 86 22 1 343 343 346 348 347 340 339 337 334 334 328 327 330 327 326 326 329 331 327 321
117 121 113 110 90 144 138 141 156 313 333 336 330 333 334 340 341 341 335 331 328 328 323 316 320 321 317 313 315 318 317 313
140 96 70 109 125 244 251 291 312 318 323 323 322 322 326 331 335 336 334 332 327 329 324 318 314 315 313 308 302 305 309 307
59 18 17 22 306 223 244 268 298 306 316 319 319 320 325 330 333 333 329 329 325 321 319 316 308 306 303 300 297 297 296 296
29 334 0 16 355 301 272 277 303 305 309 317 318 318 320 324 325 321 321 318 317 320 320 317 313 306 303 294 287 285 288 288
242 253 288 292 307 301 280 281 292 292 308 309 313 309 304 312 312 309 313 313 315 315 314 309 305 303 304 303 299 290 284 280
247 242 244 276 271 266 269 286 290 297 304 308 306 303 301 305 305 302 305 306 309 305 307 304 302 302 299 298 295 293 290 285
248 247 263 259 257 254 309 293 292 295 305 307 303 300 293 293 298 300 301 300 303 301 303 304 302 301 298 294 289 286 282 279
252 268 280 278 256 327 280 277 290 298 295 297 290 305 291 288 296 296 294 295 301 302 299 297 296 295 293 292 290 287 283 280
264 274 277 300 318 306 266 289 293 297 299 285 278 307 293 299 290 293 296 297 293 293 295 295 295 295 297 294 291 287 282 277
274 283 288 316 329 301 295 297 303 296 286 298 296 296 294 293 296 293 291 293 297 299 297 298 300 300 299 297 295 290 286 281
286 292 331 332 324 309 305 300 301 300 298 299 299 296 293 291 294 297 300 307 305 306 300 297 300 297 295 294 293 291 289 283
303 312 316 313 305 312 296 304 308 303 305 304 303 303 302 303 306 306 298 299 301 298 293 299 297 296 296 296 297 297 297 294
299 292 291 301 300 303 313 317 321 321 319 316 314 311 311 307 307 294 297 293 300 301 300 298 296 295 296 299 301 303 300 295
329 326 299 312 315 317 320 320 320 320 317 312 309 299 302 297 299 295 298 297 300 310 310 307 304 305 307 308 307 300 291 285
323 322 321 321 322 322 319 313 311 313 310 305 300 301 297 300 301 299 303 312 315 318 314 307 302 307 308 304 297 288 286 282
316 314 316 318 315 312 313 312 311 309 305 305 304 304 305 307 307 307 310 311 311 303 301 303 308 309 308 300 299 293 290 288
Height
3173 3175 3176 3177 3176 3176 3176 3177 3177 3178 3177 3176 3175 3176 3176 3174 3174 3171 3169 3167 3164 3165 3160 3158 3156 3154 3151 3150 3150 3148 3147 3146
3173 3175 3175 3175 3175 3175 3176 3176 3177 3177 3177 3176 3176 3175 3176 3175 3173 3172 3169 3167 3165 3163 3162 3158 3156 3154 3151 3150 3149 3148 3146 3145
3172 3173 3173 3174 3174 3174 3174 3175 3176 3176 3175 3176 3177 3175 3174 3174 3172 3171 3168 3166 3165 3162 3161 3159 3157 3154 3152 3149 3148 3148 3145 3144
3171 3172 3172 3173 3173 3173 3174 3175 3175 3175 3176 3174 3176 3174 3172 3170 3169 3169 3167 3165 3164 3161 3159 3157 3155 3154 3152 3149 3147 3146 3144 3143
3170 3170 3171 3172 3173 3173 3173 3173 3174 3175 3174 3174 3173 3172 3171 3169 3167 3165 3164 3164 3162 3159 3157 3155 3153 3151 3149 3147 3144 3142 3141 3140
3169 3169 3171 3172 3171 3173 3173 3173 3174 3173 3173 3172 3171 3170 3169 3167 3163 3161 3161 3160 3159 3156 3154 3153 3151 3148 3146 3144 3141 3138 3136 3134
3169 3169 3170 3171 3172 3170 3171 3173 3173 3171 3170 3170 3168 3166 3165 3162 3158 3156 3157 3156 3155 3152 3149 3147 3145 3144 3141 3139 3136 3133 3131 3128
3168 3169 3169 3168 3170 3171 3169 3170 3170 3170 3167 3165 3163 3162 3160 3158 3156 3153 3151 3149 3148 3146 3143 3139 3136 3134 3134 3131 3130 3127 3126 3122
3168 3169 3168 3167 3168 3166 3167 3166 3166 3167 3164 3161 3160 3160 3159 3156 3153 3150 3147 3144 3142 3138 3135 3132 3130 3128 3126 3124 3121 3120 3118 3115
3166 3166 3165 3163 3162 3162 3163 3164 3163 3163 3160 3158 3157 3156 3153 3150 3147 3144 3141 3138 3135 3131 3128 3126 3123 3120 3118 3117 3114 3112 3110 3106
3163 3163 3160 3158 3159 3157 3160 3161 3160 3159 3154 3153 3153 3151 3147 3144 3141 3138 3135 3131 3127 3123 3120 3114 3111 3109 3106 3105 3104 3102 3100 3096
3161 3161 3159 3158 3156 3153 3157 3159 3156 3153 3151 3150 3148 3145 3142 3139 3136 3132 3128 3124 3119 3115 3110 3107 3103 3098 3094 3092 3091 3091 3088 3085
3161 3160 3157 3156 3155 3155 3155 3155 3153 3150 3148 3144 3139 3140 3137 3133 3128 3124 3119 3114 3110 3105 3100 3096 3093 3088 3082 3080 3078 3077 3076 3073
3160 3157 3157 3155 3154 3153 3152 3151 3148 3145 3142 3141 3137 3133 3130 3125 3120 3115 3110 3105 3099 3093 3087 3083 3081 3076 3071 3066 3061 3061 3061 3059
3156 3155 3154 3152 3152 3151 3150 3148 3145 3142 3138 3134 3130 3126 3122 3117 3111 3104 3098 3091 3086 3081 3076 3072 3068 3066 3062 3056 3049 3044 3039 3043
3153 3152 3151 3150 3149 3148 3146 3144 3141 3138 3133 3127 3121 3116 3110 3104 3098 3092 3086 3080 3075 3071 3065 3061 3057 3052 3050 3047 3041 3034 3025 3020
3151 3150 3149 3147 3145 3142 3139 3135 3131 3126 3121 3114 3108 3102 3097 3092 3087 3082 3078 3070 3065 3060 3055 3051 3046 3042 3036 3032 3029 3025 3019 3011
3149 3146 3145 3142 3139 3135 3131 3126 3121 3116 3110 3105 3100 3095 3089 3083 3078 3072 3066 3060 3054 3049 3043 3038 3034 3030 3025 3021 3015 3010 3006 3000
3144 3142 3139 3136 3133 3129 3125 3120 3115 3109 3103 3096 3090 3084 3078 3071 3066 3060 3053 3047 3042 3037 3032 3028 3024 3019 3013 3009 3004 2999 2994 2991
3140 3138 3135 3132 3127 3123 3117 3111 3105 3099 3092 3086 3080 3074 3067 3061 3055 3050 3044 3038 3033 3028 3024 3019 3013 3007 3002 2996 2992 2989 2985 2981